When you browse on this site, cookies collect data to enhance your experience and personalize the content and advertising you see.
Visit our Privacy Policy to learn more. By continuing to use the site, you agree to this use of cookies and data.
  • în România
  • Lista ţărilor
  • Pe 7 zile
  • Temperatura apei
  • Hartă satelitară
  • Meteo pe hartă
  • Widget-uri
  • user-avatar
    Intrare

    Meteo pe oră la Kaprun

    Astăzi, 20 Mai, Luni

    Timp Temperatura Precipitaţii Vânt Presiune Umiditate
    00:00 +2°C° 0.1 mm 1 m/s 587 mmHg 95%
    01:00 +2°C° 0.1 mm 1 m/s 587 mmHg 94%
    02:00 +2°C° 0.3 mm 1 m/s 587 mmHg 94%
    03:00 +2°C° 0.3 mm 1 m/s 586 mmHg 94%
    04:00 +1°C° 0.3 mm 1 m/s 586 mmHg 94%
    05:00 +2°C° 0.2 mm 1 m/s 587 mmHg 92%
    06:00 +3°C° 0.2 mm 1 m/s 587 mmHg 91%
    07:00 +3°C° 0.2 mm 0 m/s 587 mmHg 89%
    08:00 +4°C° 0.6 mm 0 m/s 588 mmHg 88%
    09:00 +5°C° 0.6 mm 1 m/s 588 mmHg 88%
    10:00 +6°C° 0.6 mm 1 m/s 588 mmHg 87%
    11:00 +6°C° 1.1 mm 1 m/s 589 mmHg 88%
    12:00 +6°C° 1.1 mm 1 m/s 589 mmHg 88%
    13:00 +6°C° 1.1 mm 1 m/s 589 mmHg 89%
    14:00 +6°C° 1.5 mm 1 m/s 589 mmHg 91%
    15:00 +6°C° 1.5 mm 1 m/s 588 mmHg 92%
    16:00 +5°C° 1.5 mm 1 m/s 588 mmHg 94%
    17:00 +5°C° 1.1 mm 1 m/s 588 mmHg 95%
    18:00 +4°C° 1.1 mm 1 m/s 588 mmHg 96%
    19:00 +4°C° 1.1 mm 1 m/s 588 mmHg 97%
    20:00 +4°C° 1.4 mm 1 m/s 588 mmHg 97%
    21:00 +3°C° 1.4 mm 1 m/s 588 mmHg 97%
    22:00 +3°C° 1.4 mm 1 m/s 589 mmHg 97%
    23:00 +3°C° 1.9 mm 1 m/s 589 mmHg 97%

    Mâine, 21 Mai, Marţi

    Timp Temperatura Precipitaţii Vânt Presiune Umiditate
    00:00 +3°C° 1.9 mm 1 m/s 589 mmHg 97%
    01:00 +2°C° 1.9 mm 1 m/s 589 mmHg 97%
    02:00 +2°C° 2.4 mm 1 m/s 589 mmHg 96%
    03:00 +2°C° 2.4 mm 1 m/s 589 mmHg 96%
    04:00 +2°C° 2.4 mm 1 m/s 589 mmHg 96%
    05:00 +2°C° 2.6 mm 1 m/s 589 mmHg 96%
    06:00 +2°C° 2.6 mm 1 m/s 589 mmHg 96%
    07:00 +2°C° 2.6 mm 1 m/s 590 mmHg 96%
    08:00 +3°C° 1.2 mm 1 m/s 590 mmHg 96%
    09:00 +3°C° 1.2 mm 1 m/s 591 mmHg 95%
    10:00 +3°C° 1.2 mm 1 m/s 591 mmHg 95%
    11:00 +4°C° 0.6 mm 1 m/s 592 mmHg 93%
    12:00 +3°C° 0.6 mm 2 m/s 592 mmHg 91%
    13:00 +4°C° 0.6 mm 2 m/s 592 mmHg 90%
    14:00 +4°C° 0.5 mm 2 m/s 593 mmHg 91%
    15:00 +4°C° 0.5 mm 2 m/s 593 mmHg 91%
    16:00 +4°C° 0.5 mm 2 m/s 593 mmHg 92%
    17:00 +3°C° 0.4 mm 2 m/s 593 mmHg 93%
    18:00 +4°C° 0.4 mm 1 m/s 593 mmHg 95%
    19:00 +3°C° 0.4 mm 1 m/s 593 mmHg 96%
    20:00 +3°C° 0.6 mm 1 m/s 593 mmHg 96%
    21:00 +3°C° 0.6 mm 1 m/s 593 mmHg 95%
    22:00 +2°C° 0.6 mm 1 m/s 594 mmHg 95%
    23:00 +2°C° 0.8 mm 1 m/s 594 mmHg 95%

    Poimâine, 22 Mai, Miercuri

    Timp Temperatura Precipitaţii Vânt Presiune Umiditate
    00:00 +2°C° 0.8 mm 1 m/s 594 mmHg 95%
    01:00 +2°C° 0.8 mm 1 m/s 594 mmHg 95%
    02:00 +2°C° 0.4 mm 1 m/s 594 mmHg 95%
    03:00 +2°C° 0.4 mm 1 m/s 594 mmHg 95%
    04:00 +2°C° 0.4 mm 1 m/s 594 mmHg 96%
    05:00 +3°C° 0.2 mm 1 m/s 594 mmHg 96%
    06:00 +3°C° 0.2 mm 1 m/s 594 mmHg 96%
    07:00 +3°C° 0.2 mm 1 m/s 595 mmHg 96%
    08:00 +4°C° 0.6 mm 1 m/s 595 mmHg 95%
    09:00 +4°C° 0.6 mm 1 m/s 595 mmHg 94%
    10:00 +5°C° 0.6 mm 1 m/s 596 mmHg 93%
    11:00 +4°C° 0.5 mm 2 m/s 596 mmHg 94%
    12:00 +4°C° 0.5 mm 2 m/s 596 mmHg 94%
    13:00 +4°C° 0.5 mm 2 m/s 596 mmHg 95%
    14:00 +4°C° 0 mm 2 m/s 596 mmHg 91%
    15:00 +5°C° 0 mm 2 m/s 596 mmHg 88%
    16:00 +5°C° 0 mm 2 m/s 597 mmHg 84%
    17:00 +4°C° 0 mm 2 m/s 597 mmHg 88%
    18:00 +4°C° 0 mm 2 m/s 596 mmHg 92%
    19:00 +3°C° 0 mm 2 m/s 596 mmHg 96%
    20:00 +2°C° 0 mm 2 m/s 596 mmHg 96%
    21:00 +3°C° 0 mm 1 m/s 597 mmHg 97%
    22:00 +2°C° 0 mm 1 m/s 597 mmHg 98%
    23:00 +2°C° 0 mm 1 m/s 597 mmHg 97%

    23 Mai, Joi

    Timp Temperatura Precipitaţii Vânt Presiune Umiditate
    00:00 +2°C° 0 mm 1 m/s 597 mmHg 97%
    01:00 +1°C° 0 mm 1 m/s 597 mmHg 97%
    02:00 +1°C° 0 mm 1 m/s 597 mmHg 97%
    03:00 +1°C° 0 mm 1 m/s 596 mmHg 97%
    04:00 0°C° 0 mm 1 m/s 596 mmHg 97%
    05:00 +2°C° 0 mm 1 m/s 597 mmHg 93%
    06:00 +3°C° 0 mm 1 m/s 597 mmHg 89%
    07:00 +4°C° 0 mm 1 m/s 598 mmHg 84%
    08:00 +5°C° 0 mm 1 m/s 598 mmHg 78%
    09:00 +6°C° 0 mm 2 m/s 599 mmHg 71%
    10:00 +7°C° 0 mm 2 m/s 599 mmHg 65%
    11:00 +8°C° 0 mm 2 m/s 599 mmHg 62%
    12:00 +9°C° 0 mm 2 m/s 599 mmHg 60%
    13:00 +10°C° 0 mm 2 m/s 599 mmHg 57%
    14:00 +9°C° 0 mm 2 m/s 599 mmHg 58%
    15:00 +9°C° 0 mm 2 m/s 599 mmHg 60%
    16:00 +9°C° 0 mm 3 m/s 598 mmHg 61%
    17:00 +8°C° 0 mm 2 m/s 598 mmHg 68%
    18:00 +6°C° 0 mm 2 m/s 597 mmHg 74%
    19:00 +5°C° 0 mm 2 m/s 597 mmHg 81%
    20:00 +4°C° 0 mm 1 m/s 596 mmHg 85%
    21:00 +3°C° 0 mm 1 m/s 596 mmHg 89%
    22:00 +2°C° 0 mm 1 m/s 595 mmHg 93%
    23:00 +1°C° 0 mm 1 m/s 595 mmHg 91%

    24 Mai, Vineri

    Timp Temperatura Precipitaţii Vânt Presiune Umiditate
    00:00 +1°C° 0 mm 1 m/s 595 mmHg 88%
    01:00 +1°C° 0 mm 1 m/s 595 mmHg 86%
    02:00 +1°C° 0 mm 1 m/s 594 mmHg 83%
    03:00 +1°C° 0 mm 1 m/s 594 mmHg 81%
    04:00 +1°C° 0 mm 1 m/s 594 mmHg 78%
    05:00 +3°C° 0 mm 1 m/s 595 mmHg 74%
    06:00 +5°C° 0 mm 1 m/s 595 mmHg 71%
    07:00 +6°C° 0 mm 0 m/s 596 mmHg 67%
    08:00 +8°C° 0 mm 0 m/s 596 mmHg 62%
    09:00 +9°C° 0 mm 0 m/s 597 mmHg 58%
    10:00 +11°C° 0 mm 0 m/s 597 mmHg 53%
    11:00 +13°C° 0 mm 1 m/s 597 mmHg 52%
    12:00 +13°C° 0 mm 1 m/s 596 mmHg 50%
    13:00 +13°C° 0 mm 1 m/s 596 mmHg 49%
    14:00 +13°C° 0.2 mm 1 m/s 595 mmHg 53%
    15:00 +12°C° 0.2 mm 1 m/s 594 mmHg 58%
    16:00 +11°C° 0.2 mm 1 m/s 594 mmHg 62%
    17:00 +10°C° 0.9 mm 1 m/s 593 mmHg 72%
    18:00 +8°C° 0.9 mm 1 m/s 592 mmHg 83%
    19:00 +7°C° 0.9 mm 1 m/s 591 mmHg 93%
    20:00 +6°C° 1.6 mm 1 m/s 591 mmHg 94%
    21:00 +6°C° 1.6 mm 1 m/s 591 mmHg 95%
    22:00 +5°C° 1.6 mm 1 m/s 591 mmHg 97%
    23:00 +5°C° 0.9 mm 1 m/s 591 mmHg 97%

    25 Mai, Sâmbătă

    Timp Temperatura Precipitaţii Vânt Presiune Umiditate
    00:00 +5°C° 0.9 mm 1 m/s 590 mmHg 97%
    01:00 +4°C° 0.9 mm 1 m/s 590 mmHg 97%
    02:00 +4°C° 0.5 mm 1 m/s 590 mmHg 96%
    03:00 +4°C° 0.5 mm 1 m/s 590 mmHg 96%
    04:00 +3°C° 0.5 mm 1 m/s 590 mmHg 96%
    05:00 +4°C° 0.6 mm 1 m/s 590 mmHg 95%
    06:00 +4°C° 0.6 mm 1 m/s 590 mmHg 95%
    07:00 +4°C° 0.6 mm 1 m/s 591 mmHg 95%
    08:00 +5°C° 0.7 mm 1 m/s 591 mmHg 94%
    09:00 +5°C° 0.7 mm 1 m/s 591 mmHg 93%
    10:00 +5°C° 0.7 mm 1 m/s 592 mmHg 93%
    11:00 +5°C° 0.4 mm 2 m/s 592 mmHg 92%
    12:00 +5°C° 0.4 mm 2 m/s 592 mmHg 90%
    13:00 +5°C° 0.4 mm 2 m/s 592 mmHg 89%
    14:00 +5°C° 0.6 mm 2 m/s 592 mmHg 90%
    15:00 +5°C° 0.6 mm 2 m/s 592 mmHg 91%
    16:00 +5°C° 0.6 mm 2 m/s 592 mmHg 93%
    17:00 +4°C° 0.7 mm 2 m/s 592 mmHg 94%
    18:00 +4°C° 0.7 mm 2 m/s 592 mmHg 96%
    19:00 +3°C° 0.7 mm 2 m/s 593 mmHg 98%
    20:00 +3°C° 0.5 mm 2 m/s 593 mmHg 98%
    21:00 +3°C° 0.5 mm 2 m/s 593 mmHg 98%
    22:00 +2°C° 0.5 mm 2 m/s 593 mmHg 98%
    23:00 +3°C° 0.7 mm 1 m/s 593 mmHg 98%
    Arată mai mult